DW2770 Weather Reports


Display with metric or nautical units.
time (UTC)temp
F
wind
direction
speed
MPH
gust
MPH
rain 1hr
in
rain 24hr
in
rain mn
in
humidity
%
barometer
mb
20210512200555 61 158 5.0 5.0 0.00 0.00 0.00 74 1015.9
20210512200057 61 203 2.0 5.0 0.00 0.00 0.00 74 1015.8
20210512195555 61 180 5.0 7.0 0.00 0.00 0.00 75 1016.0
20210512195055 61 135 5.0 6.0 0.00 0.00 0.00 74 1015.9
20210512194555 61 180 6.0 7.0 0.00 0.00 0.00 74 1015.9
20210512194055 61 180 7.0 7.0 0.00 0.00 0.00 74 1015.8
20210512193554 61 203 4.0 6.0 0.00 0.00 0.00 74 1015.9
20210512193055 61 225 5.0 8.0 0.00 0.00 0.00 74 1015.8
20210512192558 62 203 4.0 9.0 0.00 0.00 0.00 74 1015.9
20210512192055 62 158 4.0 6.0 0.00 0.00 0.00 74 1015.9
20210512191554 62 203 5.0 8.0 0.00 0.00 0.00 74 1015.9
20210512191055 62 225 10.0 10.0 0.00 0.00 0.00 74 1015.9
20210512190555 62 180 6.0 6.0 0.00 0.00 0.00 74 1015.8
20210512190054 62 225 5.0 8.0 0.00 0.00 0.00 74 1015.7
20210512185554 62 225 8.0 10.0 0.00 0.00 0.00 74 1015.7
20210512185058 62 225 10.0 10.0 0.00 0.00 0.00 74 1015.5
20210512184555 62 248 4.0 7.0 0.00 0.00 0.00 73 1015.5
20210512184055 62 225 6.0 7.0 0.00 0.00 0.00 72 1015.5
20210512183555 62 225 3.0 6.0 0.00 0.00 0.00 72 1015.6
20210512183055 62 180 6.0 6.0 0.00 0.00 0.00 72 1015.4
20210512182558 62 225 4.0 5.0 0.00 0.00 0.00 72 1015.5
20210512182055 62 225 3.0 3.0 0.00 0.00 0.00 71 1015.6
20210512181555 62 225 3.0 6.0 0.00 0.00 0.00 72 1015.5
20210512181055 62 225 6.0 9.0 0.00 0.00 0.00 71 1015.5
20210512180554 63 225 9.0 9.0 0.00 0.00 0.00 70 1015.5
20210512180055 63 338 2.0 2.0 0.00 0.00 0.00 69 1015.4
20210512175558 63 248 3.0 6.0 0.00 0.00 0.00 69 1015.4
20210512175054 64 293 6.0 6.0 0.00 0.00 0.00 69 1015.3
20210512174555 64 315 2.0 5.0 0.00 0.00 0.00 69 1015.3
20210512174058 64 203 0.0 5.0 0.00 0.00 0.00 68 1015.2
20210512173555 64 203 5.0 5.0 0.00 0.00 0.00 68 1015.4
20210512173055 64 293 1.0 2.0 0.00 0.00 0.00 68 1015.5
20210512172558 64 293 3.0 6.0 0.00 0.00 0.00 69 1015.4
20210512172058 64 203 6.0 8.0 0.00 0.00 0.00 69 1015.3
20210512171555 64 293 2.0 8.0 0.00 0.00 0.00 69 1015.2
20210512171055 64 248 2.0 2.0 0.00 0.00 0.00 69 1015.1
20210512170555 64 113 1.0 3.0 0.00 0.00 0.00 69 1015.3
20210512170055 65 248 3.0 3.0 0.00 0.00 0.00 68 1015.3
20210512165555 64 203 5.0 5.0 0.00 0.00 0.00 69 1015.2
20210512165054 65 338 3.0 3.0 0.00 0.00 0.00 68 1015.3
20210512164554 65 0 3.0 5.0 0.00 0.00 0.00 68 1015.3
20210512164057 65 248 5.0 5.0 0.00 0.00 0.00 69 1015.4
20210512163557 65 225 2.0 5.0 0.00 0.00 0.00 68 1015.3
20210512163055 65 270 0.0 4.0 0.00 0.00 0.00 68 1015.5
20210512162601 65 248 7.0 7.0 0.00 0.00 0.00 68 1015.5
20210512162055 65 293 3.0 7.0 0.00 0.00 0.00 67 1015.5
20210512161554 65 270 7.0 7.0 0.00 0.00 0.00 67 1015.5
20210512161055 65 270 7.0 7.0 0.00 0.00 0.00 67 1015.7
20210512160555 65 203 3.0 4.0 0.00 0.00 0.00 67 1015.5
20210512160054 65 293 4.0 6.0 0.00 0.00 0.00 67 1015.3
20210512155554 65 0 2.0 4.0 0.00 0.00 0.00 67 1015.6
20210512155055 65 270 4.0 4.0 0.00 0.00 0.00 67 1015.6
20210512154555 65 315 0.0 5.0 0.00 0.00 0.00 66 1015.6
20210512154055 65 225 9.0 9.0 0.00 0.00 0.00 66 1015.6
20210512153554 66 225 1.0 4.0 0.00 0.00 0.00 66 1015.6
20210512153054 66 270 4.0 6.0 0.00 0.00 0.00 66 1015.7
20210512152557 66 248 2.0 6.0 0.00 0.00 0.00 66 1015.6
20210512152055 66 248 1.0 8.0 0.00 0.00 0.00 66 1015.7
20210512151557 65 315 4.0 4.0 0.00 0.00 0.00 66 1015.6
20210512151055 65 338 2.0 4.0 0.00 0.00 0.00 67 1015.6
20210512150555 66 293 2.0 8.0 0.00 0.00 0.00 67 1015.6
20210512150057 66 315 4.0 8.0 0.00 0.00 0.00 67 1015.5
20210512145555 66 293 6.0 7.0 0.00 0.00 0.00 67 1015.7
20210512145055 66 293 4.0 4.0 0.00 0.00 0.00 67 1015.8
20210512144558 66 248 1.0 4.0 0.00 0.00 0.00 67 1015.9
20210512144054 66 270 5.0 5.0 0.00 0.00 0.00 67 1015.7
20210512143555 66 248 5.0 7.0 0.00 0.00 0.00 67 1015.6
20210512143055 66 248 5.0 6.0 0.00 0.00 0.00 68 1015.6
20210512142554 66 270 3.0 6.0 0.00 0.00 0.00 69 1015.6
20210512142055 65 293 5.0 6.0 0.00 0.00 0.00 70 1015.7
20210512141558 65 270 6.0 6.0 0.00 0.00 0.00 70 1015.7
20210512141055 65 315 6.0 10.0 0.00 0.00 0.00 69 1015.7
20210512140555 66 270 10.0 10.0 0.00 0.00 0.00 69 1015.8
20210512140055 66 248 2.0 3.0 0.00 0.00 0.00 69 1015.9
20210512135554 65 293 3.0 16.0 0.00 0.00 0.00 69 1015.8
20210512135057 65 293 3.0 10.0 0.00 0.00 0.00 69 1015.8
20210512134558 65 0 6.0 6.0 0.00 0.00 0.00 70 1015.8
20210512134057 66 315 4.0 4.0 0.00 0.00 0.00 69 1015.7
20210512133555 66 293 4.0 6.0 0.00 0.00 0.00 69 1015.7
20210512133055 66 248 6.0 10.0 0.00 0.00 0.00 69 1015.8
20210512132554 66 113 2.0 12.0 0.00 0.00 0.00 69 1015.7
20210512132054 66 270 3.0 3.0 0.00 0.00 0.00 70 1015.9
20210512131555 66 248 10.0 10.0 0.00 0.00 0.00 71 1015.9
20210512131054 66 203 5.0 5.0 0.00 0.00 0.00 71 1016.0
20210512130558 66 293 2.0 6.0 0.00 0.00 0.00 72 1016.0
20210512130057 66 338 6.0 6.0 0.00 0.00 0.00 72 1016.1
20210512125555 66 315 2.0 5.0 0.00 0.00 0.00 72 1016.1
20210512125054 66 338 3.0 3.0 0.00 0.00 0.00 72 1016.0
20210512124558 66 315 2.0 5.0 0.00 0.00 0.00 73 1015.9
20210512124054 66 23 7.0 7.0 0.00 0.00 0.00 73 1016.0
20210512123555 66 270 7.0 7.0 0.00 0.00 0.00 74 1016.0
20210512123100 66 293 7.0 14.0 0.00 0.00 0.00 74 1015.9
20210512122554 66 315 5.0 6.0 0.00 0.00 0.00 73 1016.0
20210512122055 66 203 4.0 7.0 0.00 0.00 0.00 73 1016.1
20210512121555 66 248 4.0 6.0 0.00 0.00 0.00 73 1016.1
20210512121055 67 293 3.0 10.0 0.00 0.00 0.00 73 1016.0
20210512120555 67 293 10.0 10.0 0.00 0.00 0.00 73 1016.0
20210512120054 66 315 4.0 4.0 0.00 0.00 0.00 74 1015.9
20210512115554 66 315 10.0 10.0 0.00 0.00 0.00 73 1016.0
20210512115055 66 23 4.0 10.0 0.00 0.00 0.00 73 1015.9
20210512114555 66 270 3.0 3.0 0.00 0.00 0.00 74 1015.9
20210512114054 66 248 7.0 8.0 0.00 0.00 0.00 75 1015.9
20210512113557 65 203 8.0 8.0 0.00 0.00 0.00 75 1016.0
20210512113100 65 293 2.0 5.0 0.00 0.00 0.00 74 1016.1
20210512112554 65 248 7.0 7.0 0.00 0.00 0.00 74 1016.1
20210512112055 65 293 2.0 5.0 0.00 0.00 0.00 74 1016.2
20210512111554 66 315 5.0 9.0 0.00 0.00 0.00 74 1016.2
20210512111055 66 203 9.0 9.0 0.00 0.00 0.00 74 1016.1
20210512110554 66 315 6.0 6.0 0.00 0.00 0.00 74 1016.3
20210512110054 67 315 3.0 3.0 0.00 0.00 0.00 73 1016.3
20210512105554 67 293 2.0 5.0 0.00 0.00 0.00 74 1016.3
20210512105054 66 203 5.0 5.0 0.00 0.00 0.00 74 1016.2
20210512104555 67 248 4.0 5.0 0.00 0.00 0.00 74 1016.2
20210512104055 66 203 4.0 4.0 0.00 0.00 0.00 74 1016.2
20210512103554 67 315 1.0 6.0 0.00 0.00 0.00 74 1016.1
20210512103054 67 203 3.0 3.0 0.00 0.00 0.00 74 1016.1
20210512102554 67 0 8.0 8.0 0.00 0.00 0.00 74 1016.1
20210512102054 66 180 2.0 6.0 0.00 0.00 0.00 74 1016.1
20210512101558 66 270 2.0 7.0 0.00 0.00 0.00 74 1015.9
20210512101101 66 0 6.0 11.0 0.00 0.00 0.00 74 1016.2
20210512100555 66 203 8.0 8.0 0.00 0.00 0.00 74 1016.0
20210512100055 66 293 2.0 8.0 0.00 0.00 0.00 74 1016.0
20210512095554 66 293 8.0 8.0 0.00 0.00 0.00 73 1016.0
20210512095058 67 293 3.0 4.0 0.00 0.00 0.00 73 1015.9
20210512094557 67 203 3.0 7.0 0.00 0.00 0.00 74 1015.9
20210512094055 67 293 3.0 9.0 0.00 0.00 0.00 73 1015.9
20210512093555 67 248 9.0 9.0 0.00 0.00 0.00 73 1015.9
20210512093055 67 270 8.0 8.0 0.00 0.00 0.00 73 1015.9
20210512092555 67 270 2.0 8.0 0.00 0.00 0.00 72 1015.9
20210512092058 67 315 8.0 13.0 0.00 0.00 0.00 72 1015.9
20210512091554 66 180 13.0 13.0 0.00 0.00 0.00 72 1015.9
20210512091055 66 270 3.0 8.0 0.00 0.00 0.00 72 1015.9
20210512090555 66 248 8.0 9.0 0.00 0.00 0.00 72 1015.8
20210512090055 66 270 9.0 10.0 0.00 0.00 0.00 72 1015.6
20210512085554 66 248 9.0 11.0 0.00 0.00 0.00 72 1015.7
20210512085058 66 270 11.0 14.0 0.00 0.00 0.00 72 1015.7
20210512084557 66 180 8.0 8.0 0.00 0.00 0.00 73 1015.8
20210512084055 66 203 17.0 17.0 0.00 0.00 0.00 73 1015.6
20210512083554 66 158 10.0 10.0 0.00 0.00 0.00 74 1015.5
20210512083054 66 315 10.0 10.0 0.00 0.00 0.00 74 1015.5
20210512082555 66 270 4.0 17.0 0.00 0.00 0.00 74 1015.5
20210512082055 66 248 4.0 13.0 0.00 0.00 0.00 74 1015.4
20210512081554 66 225 13.0 13.0 0.00 0.00 0.00 74 1015.4
20210512081054 65 293 5.0 12.0 0.00 0.00 0.00 74 1015.5
20210512080555 65 248 12.0 12.0 0.00 0.00 0.00 74 1015.4
20210512080055 65 203 3.0 8.0 0.00 0.00 0.00 74 1015.4
20210512075554 65 248 8.0 8.0 0.00 0.00 0.00 74 1015.4
20210512075055 65 180 7.0 13.0 0.00 0.00 0.00 73 1015.3
20210512074554 65 203 13.0 13.0 0.00 0.00 0.00 73 1015.2
20210512074057 65 180 2.0 6.0 0.00 0.00 0.00 73 1015.3
20210512073555 65 203 2.0 10.0 0.00 0.00 0.00 74 1015.3
20210512073058 65 248 10.0 10.0 0.00 0.00 0.00 74 1015.3
20210512072558 65 180 4.0 10.0 0.00 0.00 0.00 73 1015.4
20210512072058 65 270 9.0 9.0 0.00 0.00 0.00 71 1015.4
20210512071557 65 293 5.0 11.0 0.00 0.00 0.00 70 1015.2
20210512071058 65 225 11.0 11.0 0.00 0.00 0.00 69 1015.3
20210512070555 65 270 8.0 9.0 0.00 0.00 0.00 67 1015.4
20210512070100 65 225 9.0 9.0 0.00 0.00 0.00 68 1015.4
20210512065555 65 270 3.0 6.0 0.00 0.00 0.00 68 1015.3
20210512065058 65 0 1.0 20.0 0.00 0.00 0.00 67 1015.2
20210512064554 65 225 19.0 19.0 0.00 0.00 0.00 67 1015.3
20210512064054 65 203 5.0 12.0 0.00 0.00 0.00 67 1015.3
20210512063554 65 203 12.0 13.0 0.00 0.00 0.00 67 1015.4
20210512063055 65 293 13.0 15.0 0.00 0.00 0.00 67 1015.3
20210512062557 65 225 6.0 12.0 0.00 0.00 0.00 67 1015.2
20210512062055 65 225 11.0 11.0 0.00 0.00 0.00 68 1015.3
20210512061601 65 203 7.0 9.0 0.00 0.00 0.00 68 1015.2
20210512061057 64 225 9.0 12.0 0.00 0.00 0.00 68 1015.2
20210512060554 64 225 10.0 10.0 0.00 0.00 0.00 68 1015.1
20210512060054 64 203 9.0 13.0 0.00 0.00 0.00 68 1015.2
20210512055557 64 248 13.0 13.0 0.00 0.00 0.00 68 1015.0
20210512055054 64 225 11.0 11.0 0.00 0.00 0.00 68 1015.0
20210512054554 64 225 8.0 8.0 0.00 0.00 0.00 69 1014.9
20210512054058 63 225 6.0 16.0 0.00 0.00 0.00 69 1014.8
20210512053555 64 203 16.0 16.0 0.00 0.00 0.00 69 1014.8
20210512053054 64 203 7.0 11.0 0.00 0.00 0.00 69 1014.9
20210512052554 64 180 7.0 11.0 0.00 0.00 0.00 69 1014.9
20210512052054 63 225 11.0 11.0 0.00 0.00 0.00 69 1014.9
20210512051554 63 180 10.0 19.0 0.00 0.00 0.00 69 1014.8
20210512051054 63 225 12.0 12.0 0.00 0.00 0.00 70 1014.8
20210512050554 63 203 12.0 14.0 0.00 0.00 0.00 69 1014.8
20210512050058 63 203 10.0 13.0 0.00 0.00 0.00 70 1014.7
20210512045555 63 203 10.0 11.0 0.00 0.00 0.00 70 1014.8
20210512045055 63 293 11.0 16.0 0.00 0.00 0.00 71 1014.7
20210512044554 63 225 16.0 16.0 0.00 0.00 0.00 71 1014.8
20210512044054 63 248 8.0 8.0 0.00 0.00 0.00 71 1014.7
20210512043557 63 225 4.0 6.0 0.00 0.00 0.00 71 1014.7
20210512043055 63 248 6.0 14.0 0.00 0.00 0.00 71 1014.6
20210512042555 63 203 9.0 16.0 0.00 0.00 0.00 71 1014.6
20210512042055 63 225 16.0 16.0 0.00 0.00 0.00 71 1014.6
20210512041554 63 225 13.0 13.0 0.00 0.00 0.00 71 1014.7
20210512041054 63 203 13.0 13.0 0.00 0.00 0.00 71 1014.6
20210512040557 63 225 6.0 9.0 0.00 0.00 0.00 71 1014.7
20210512040058 63 225 9.0 11.0 0.00 0.00 0.00 71 1014.6
20210512035558 63 203 10.0 12.0 0.00 0.00 0.00 71 1014.6
20210512035057 63 180 7.0 8.0 0.00 0.00 0.00 72 1014.5
20210512034554 63 225 8.0 10.0 0.00 0.00 0.00 72 1014.5
20210512034054 63 203 10.0 10.0 0.00 0.00 0.00 72 1014.5
20210512033554 63 225 7.0 8.0 0.00 0.00 0.00 73 1014.4
20210512033057 63 203 8.0 9.0 0.00 0.00 0.00 73 1014.4
20210512032555 63 225 9.0 14.0 0.00 0.00 0.00 72 1014.3
20210512032054 63 225 8.0 8.0 0.00 0.00 0.00 72 1014.2
20210512031554 63 203 8.0 9.0 0.00 0.00 0.00 72 1014.3
20210512031054 63 225 9.0 9.0 0.00 0.00 0.00 72 1014.3
20210512030554 63 203 6.0 6.0 0.00 0.00 0.00 72 1014.3
20210512030055 63 225 5.0 8.0 0.00 0.00 0.00 72 1014.2
20210512025600 63 225 6.0 9.0 0.00 0.00 0.00 72 1014.2
20210512025101 63 225 9.0 9.0 0.00 0.00 0.00 72 1014.3
20210512024558 63 225 4.0 6.0 0.00 0.00 0.00 72 1014.4
20210512024058 63 248 3.0 8.0 0.00 0.00 0.00 72 1014.5
20210512023554 63 225 6.0 6.0 0.00 0.00 0.00 73 1014.5
20210512023055 63 203 3.0 11.0 0.00 0.00 0.00 73 1014.4
20210512022555 63 203 11.0 11.0 0.00 0.00 0.00 73 1014.4
20210512022057 63 225 8.0 8.0 0.00 0.00 0.00 74 1014.5
20210512021554 63 203 3.0 3.0 0.00 0.00 0.00 75 1014.3
20210512021054 63 225 2.0 4.0 0.00 0.00 0.00 75 1014.3
20210512020557 62 225 4.0 4.0 0.00 0.00 0.00 76 1014.4
20210512020057 62 158 0.0 5.0 0.00 0.00 0.00 76 1014.3
20210512015557 63 225 3.0 6.0 0.00 0.00 0.00 76 1014.3
20210512015054 63 203 6.0 7.0 0.00 0.00 0.00 76 1014.2
20210512014557 62 180 3.0 6.0 0.00 0.00 0.00 77 1014.2
20210512014054 62 203 6.0 7.0 0.00 0.00 0.00 77 1014.3
20210512013555 62 203 6.0 6.0 0.00 0.00 0.00 78 1014.2
20210512013054 62 180 6.0 6.0 0.00 0.00 0.00 79 1014.2
20210512012555 62 203 4.0 5.0 0.00 0.00 0.00 79 1014.2
20210512012057 62 225 5.0 7.0 0.00 0.00 0.00 79 1014.2
20210512011555 63 180 7.0 7.0 0.00 0.00 0.00 79 1014.1
20210512011057 63 203 6.0 7.0 0.00 0.00 0.00 80 1014.1
20210512010554 63 248 5.0 5.0 0.00 0.00 0.00 80 1014.2
20210512010100 63 203 2.0 5.0 0.00 0.00 0.00 81 1014.3
20210512005554 63 225 5.0 5.0 0.00 0.00 0.00 81 1014.3
20210512005054 63 180 5.0 5.0 0.00 0.00 0.00 81 1014.3
20210512004554 62 180 2.0 4.0 0.00 0.00 0.00 81 1014.3
20210512004054 62 180 4.0 4.0 0.00 0.00 0.00 81 1014.3
20210512003554 62 180 3.0 3.0 0.00 0.00 0.00 80 1014.2
20210512003054 62 248 0.0 3.0 0.00 0.00 0.00 81 1014.3
20210512002555 62 158 3.0 3.0 0.00 0.00 0.00 80 1014.4
20210512002057 62 225 3.0 3.0 0.00 0.00 0.00 80 1014.4
20210512001554 62 180 2.0 6.0 0.00 0.00 0.00 79 1014.5
20210512001054 62 203 4.0 4.0 0.00 0.00 0.00 79 1014.5
20210512000554 62 180 3.0 5.0 0.00 0.00 0.00 79 1014.6
20210512000054 62 203 4.0 4.0 0.00 0.00 0.00 77 1014.7
20210511235555 62 203 3.0 4.0 0.00 0.00 0.00 77 1014.7
20210511235058 62 203 2.0 3.0 0.00 0.00 0.00 76 1014.8
20210511234554 62 203 2.0 2.0 0.00 0.00 0.00 75 1014.7
20210511234100 62 180 0.0 1.0 0.00 0.00 0.00 74 1014.8
20210511233600 63 180 1.0 2.0 0.00 0.00 0.00 74 1015.0
20210511233054 63 203 2.0 2.0 0.00 0.00 0.00 73 1014.9
20210511232555 63 158 0.0 0.0 0.00 0.00 0.00 73 1014.9
20210511232054 63 180 0.0 0.0 0.00 0.00 0.00 73 1015.0
20210511231555 63 45 0.0 2.0 0.00 0.00 0.00 73 1015.0
20210511231057 63 203 2.0 3.0 0.00 0.00 0.00 73 1014.9
20210511230600 64 180 3.0 4.0 0.00 0.00 0.00 73 1014.8
20210511230054 64 203 3.0 5.0 0.00 0.00 0.00 72 1014.9
20210511225554 64 203 4.0 5.0 0.00 0.00 0.00 72 1014.9
20210511225058 64 158 5.0 5.0 0.00 0.00 0.00 71 1015.1
20210511224554 64 203 4.0 4.0 0.00 0.00 0.00 71 1015.1
20210511224055 64 180 6.0 6.0 0.00 0.00 0.00 70 1015.1
20210511223555 64 180 6.0 7.0 0.00 0.00 0.00 69 1015.3
20210511223058 64 225 7.0 10.0 0.00 0.00 0.00 69 1015.4
20210511222554 64 203 5.0 6.0 0.00 0.00 0.00 68 1015.4
20210511222054 64 225 5.0 8.0 0.00 0.00 0.00 67 1015.4
20210511221554 64 203 6.0 8.0 0.00 0.00 0.00 65 1015.4
20210511221054 65 203 8.0 8.0 0.00 0.00 0.00 65 1015.5
20210511220558 65 225 6.0 7.0 0.00 0.00 0.00 65 1015.5
20210511220054 65 203 5.0 9.0 0.00 0.00 0.00 65 1015.6
20210511215554 65 225 9.0 9.0 0.00 0.00 0.00 66 1015.7
20210511215054 65 203 6.0 9.0 0.00 0.00 0.00 67 1015.7
20210511214555 65 203 9.0 10.0 0.00 0.00 0.00 68 1015.6
20210511214054 65 203 10.0 10.0 0.00 0.00 0.00 70 1015.6
20210511213554 65 338 3.0 8.0 0.00 0.00 0.00 71 1015.6
20210511213054 66 225 8.0 10.0 0.00 0.00 0.00 71 1015.7
20210511212557 66 203 6.0 6.0 0.00 0.00 0.00 71 1015.8
20210511212054 66 225 6.0 8.0 0.00 0.00 0.00 71 1015.9
20210511211557 66 203 4.0 5.0 0.00 0.00 0.00 72 1015.8
20210511211055 66 270 3.0 4.0 0.00 0.00 0.00 74 1015.8
20210511210555 66 315 4.0 4.0 0.00 0.00 0.00 75 1015.9
20210511210054 66 315 2.0 8.0 0.00 0.00 0.00 76 1015.9
20210511205557 66 203 8.0 8.0 0.00 0.00 0.00 78 1015.8
20210511205054 66 248 6.0 6.0 0.00 0.00 0.00 80 1016.0
20210511204554 66 225 3.0 6.0 0.00 0.00 0.00 80 1016.0
20210511204057 66 203 6.0 10.0 0.00 0.00 0.00 80 1016.2
20210511203554 66 225 7.0 7.0 0.00 0.00 0.00 80 1016.2
20210511203054 66 203 3.0 6.0 0.00 0.00 0.00 80 1016.2
20210511202554 66 180 6.0 6.0 0.00 0.00 0.00 81 1016.2
20210511202058 65 225 6.0 6.0 0.00 0.00 0.00 81 1016.1
20210511201554 65 180 1.0 3.0 0.00 0.00 0.00 81 1016.1
20210511201054 66 203 2.0 4.0 0.00 0.00 0.00 81 1016.0